{"data":{"norad_id":48593,"intl_designator":"2021-041AS","name":"STARLINK-2250","alt_names":[],"object_type":"PAYLOAD","status":"ACTIVE","operator":null,"country":"US","launch_date":"2021-05-15","launch_site_code":"AFETR","launch_vehicle":null,"mission":null,"orbit_class":"UNKNOWN","rcs_meters":null,"size_class":null,"mass_kg":null,"dimensions":null,"purposes":["comms"],"wikipedia_slug":null,"has_3d_model":false,"image_url":null,"decayed_at":null,"tle_current":{"epoch":"2026-09-19T18:20:32.861472Z","epoch_age_seconds":100807,"freshness":"FRESH","line1":"1 48593U 21041AS  26262.76426923 -.00000903  00000+0 -17322-4 0  9996","line2":"2 48593  53.1609 316.7218 0001243 105.8196 254.2943 15.31700251294822","mean_motion":15.31700251,"eccentricity":0.0001243,"inclination_deg":53.1609,"raan_deg":316.7218,"arg_perigee_deg":105.8196,"mean_anomaly_deg":254.2943,"bstar":-1.7322e-5,"rev_number":29482,"period_min":94.013172555131,"perigee_km":469.88793169031,"apogee_km":471.59056232531,"semimajor_km":6848.8762470078,"source":"CELESTRAK","updated_at":"2026-09-20T09:00:39.137843Z"}}}